Location: Tel Aviv
(32.0670°N, 34.7670°E)
Time: 02:08:30
(UTC+02:00)

Transit 4A - Pass Details

Date: 08 December 2023
Orbit: 869 x 974 km, 66.8° (Epoch: 23 February)

Event Time Altitude Azimuth Distance (km) Brightness Sun altitude
Exits shadow 03:46:33 32° 33° (NNE) 1,512 9.1 -33.6°
Maximum altitude 03:47:48 35° 58° (ENE) 1,422 9.1 -33.3°
Drops below altitude 10° 03:53:07 10° 122° (ESE) 2,538 10.9 -32.2°
Sets 03:55:47 0° 132° (SE) 3,462 11.7 -31.7°
